Location: Albany
(35.0000°S, 118.0000°E)
Time: 11:29:37
(UTC-04:00)

JAS-1B - Visible Passes

Search period start: 31 March 2015 00:00
Search period end: 10 April 2015 00:00
Orbit: 911 x 1744 km, 99.1° (Epoch: 31 March)

Date Brightness Start Highest point End Pass type
(mag) Time Alt. Az. Time Alt. Az. Time Alt. Az.
31 Mar 9.7 10:03:50 21° SSE 10:03:50 21° SSE 10:07:32 10° S visible
31 Mar 9.8 11:56:06 22° SSW 11:56:06 22° SSW 11:59:01 10° SSW visible
01 Apr 9.6 10:23:22 24° SSE 10:23:22 24° SSE 10:27:04 10° S visible
01 Apr 10.0 12:15:38 19° SSW 12:15:38 19° SSW 12:17:56 10° SSW visible
02 Apr 9.6 10:42:54 25° S 10:42:54 25° S 10:46:28 10° S visible
02 Apr 10.1 12:35:10 15° SSW 12:35:10 15° SSW 12:36:41 10° SSW visible
03 Apr 10.0 09:10:10 13° SE 09:10:10 13° SE 09:12:02 10° SSE visible
03 Apr 9.7 11:02:26 24° S 11:02:26 24° S 11:05:46 10° S visible
03 Apr 10.3 12:54:43 12° SW 12:54:43 12° SW 12:55:15 10° SW visible
04 Apr 9.9 09:29:43 16° SSE 09:29:43 16° SSE 09:32:19 10° SSE visible
04 Apr 9.8 11:21:59 23° S 11:21:59 23° S 11:24:58 10° S visible
05 Apr 9.8 09:49:15 18° SSE 09:49:15 18° SSE 09:52:09 10° S visible
05 Apr 9.9 11:41:31 21° SSW 11:41:31 21° SSW 11:44:02 10° SSW visible
06 Apr 9.8 10:08:48 20° SSE 10:08:48 20° SSE 10:11:47 10° S visible
06 Apr 10.0 12:01:04 18° SSW 12:01:04 18° SSW 12:03:01 10° SSW visible
07 Apr 9.8 10:28:21 21° S 10:28:21 21° S 10:31:15 10° S visible
07 Apr 10.2 12:20:37 15° SSW 12:20:37 15° SSW 12:21:52 10° SSW visible
08 Apr 10.1 08:55:37 10° SSE 08:55:37 10° SSE 08:55:43 10° SSE visible
08 Apr 9.8 10:47:53 21° S 10:47:53 21° S 10:50:35 10° S visible
08 Apr 10.3 12:40:10 11° SSW 12:40:10 11° SSW 12:40:33 10° SSW visible
09 Apr 10.0 09:15:10 13° SSE 09:15:10 13° SSE 09:16:34 10° SSE visible
09 Apr 9.9 11:07:26 20° S 11:07:26 20° S 11:09:49 10° S visible
